Location: Buch
(49.7331°N, 12.1098°E)
Time: 01:10:34
(UTC+00:00)

Cosmos 1975 - Pass Details

Date: 12 May 2021
Orbit: 541 x 560 km, 82.5° (Epoch: 23 June)

Event Time Altitude Azimuth Distance (km) Brightness Sun altitude
Rises 22:50:07 0° 341° (NNW) 2,716 7.7 -21.8°
Reaches altitude 10° 22:52:26 10° 331° (NNW) 1,818 6.4 -21.8°
Maximum altitude 22:55:57 30° 269° (W) 982 4.1 -21.8°
Enters shadow 22:56:16 30° 260° (W) 991 4.0 -21.8°
